SCP
0 0 0 0 0 0 0 0 0 0 0 0 0 0 0 0 0 0 0 0 0 0 0 0 0 0 0 0 0 0 0 0 0 0 0 0 0 0 0 0 0 0 0
0 0 0 0 0 0 0 0 0 0 0 0 0 0 0 0 0 0 0 0 0 0 0 0 0 0 0 0 0 0 0 0 0 0 0 0 0 0 0 0 0 0 0
0 0 0 0 0 0 0 0 0 0 0 0 0 0 0 0 0 0 0 0 0 0 0 0 0 0 0 0 0 0 0 0 0 0 0 0 0 0 0 0 0 0 0
0 0 0 0 0 0 0 0 0 0 0 0 0 0 0 0 0 0 0 0 0 0 0 0 0 0 0 0 0 0 0 0 0 0 0 0 0 0 0 0 0 0 0
0 0 0 0 0 0 0 0 0 0 0 0 0 0 0 0 0 0 0 0 0 0 0 0 0 0 0 0 0 0 0 0 0 0 0 0 0 0 0 0 0 0 0
0 0 0 0 0 0 0 0 0 0 0 0 0 0 0 0 0 0 0 0 0 0 0 0 0 0 0 0 0 0 0 0 0 0 0 0 0 0 0 0 0 0 0
0 0 0 0 0 0 0 0 0 0 0 0 0 0 0 0 0 0 0 0 0 0 0 0 0 0 0 0 0 0 0 0 0 0 0 0 0 0 0 0 0 0 0
0 0 0 0 0 0 0 0 0 0 0 0 0 0 0 0 0 0 0 0 0 0 0 0 0 0 0 0 0 0 0 0 0 0 0 0 0 0 0 0 0 0 0
0 0 0 0 0 0 0 0 0 0 0 0 0 0 0 0 0 0 0 0 0 0 0 0 0 0 0 0 0 0 0 0 0 0 0 0 0 0 0 0 0 0 0
0 0 0 0 0 0 0 0 0 0 0 0 0 0 0 0 0 0 0 0 0 0 0 0 0 0 0 0 0 0 0 0 0 0 0 0 0 0 0 0 0 0 0
0 0 0 0 0 0 0 0 0 0 0 0 0 0 0 0 0 0 0 0 0 0 0 0 0 -0 -0 0 0 0 0 0 0 0 0 0 0 0 0 0 0 0 0
0 0 0 0 0 0 0 0 0 0 0 0 0 0 0 0 0 0 0 0 0 0 0 -0 -0 -0 -0 -0 -0 0 0 0 0 0 0 0 0 0 0 0 0 0 0
0 0 0 0 0 0 0 0 0 0 0 0 0 0 0 0 0 0 0 0 0 0 -0 -0 0 0 -0 -0 -0 0 0 0 0 0 0 0 0 0 0 0 0 0 0
0 0 0 0 0 0 0 0 0 0 0 0 0 0 0 0 0 0 0 0 0 -0 -0 -0 -0 -0 -0 0 0 0 -0 -0 0 0 0 0 0 0 0 0 0 0 0
0 0 0 0 0 0 0 0 0 0 0 0 0 0 0 0 0 0 0 0 0 -0 -0 -0 -0 0 -0 -0 0 0 0 0 0 0 0 0 0 0 0 0 0 0 0
0 0 0 0 0 0 0 0 0 0 0 0 0 0 0 0 0 0 0 0 0 -0 0 0 0 -0 -0 -0 0 -0 -0 0 0 0 0 0 0 0 0 0 0 0 0
0 0 0 0 0 0 0 0 0 0 0 0 0 0 0 0 0 0 0 0 0 0 0 0 0 0 -0 -0 -0 0 -0 -0 -0 0 0 0 0 0 0 0 0 0 0
0 0 0 0 0 0 0 0 0 0 0 0 0 0 0 0 0 0 0 0 0 0 0 0 0 0 -0 -0 -0 -0 -0 -0 -0 0 0 0 0 0 0 0 0 0 0
0 0 0 0 0 0 0 0 0 0 0 0 0 0 0 0 0 0 0 0 0 0 0 0 0 0 0 -0 -0 -0 -0 -0 -0 0 0 0 0 0 0 0 0 0 0
0 0 0 0 0 0 0 0 0 0 0 0 0 0 0 0 0 0 0 0 0 0 0 0 0 0 0 0 -0 -0 -0 -0 0 0 0 0 0 0 0 0 0 0 0
0 0 0 0 0 0 0 0 0 0 0 0 0 0 0 0 0 0 0 0 0 0 0 0 0 0 0 0 0 0 0 0 0 0 0 0 0 0 0 0 0 0 0
0 0 0 0 0 0 0 0 0 0 0 0 0 0 0 0 0 0 0 0 0 0 0 0 0 0 0 0 0 0 0 0 0 0 0 0 0 0 0 0 0 0 0
0 0 0 0 0 0 0 0 0 0 0 0 0 0 0 0 0 0 0 0 0 0 0 0 0 0 0 0 0 0 0 0 0 0 0 0 0 0 0 0 0 0 0
0 0 0 0 0 0 0 0 0 0 0 0 0 0 0 0 0 0 0 0 0 0 0 0 0 0 0 0 0 0 0 0 0 0 0 0 0 0 0 0 0 0 0
0 0 0 0 0 0 0 0 0 0 0 0 0 0 0 0 0 0 0 0 0 0 0 0 0 0 0 0 0 0 0 0 0 0 0 0 0 0 0 0 0 0 0
0 0 0 0 0 0 0 0 0 0 0 0 0 0 0 0 0 0 0 0 0 0 0 0 0 0 0 0 0 0 0 0 0 0 0 0 0 0 0 0 0 0 0
Wind_Speed_500mb
7 5 6 9 12 16 17 20 19 20 22 21 25 31 33 33 29 29 28 27 28 28 29 31 32 31 30 27 22 26 25 27 24 16 19 23 24 27 30 34 36 41 44
12 17 18 18 20 18 17 13 20 27 17 19 24 26 26 27 27 27 29 33 29 28 28 30 31 33 33 32 32 23 20 26 31 33 29 27 25 29 33 35 33 33 40
20 15 6 7 13 18 15 17 21 23 16 22 22 28 25 24 22 24 29 27 29 29 29 29 30 31 32 35 35 34 28 21 29 37 34 35 26 26 30 33 36 36 35
5 4 2 3 1 4 2 6 6 14 16 17 20 20 19 19 18 21 24 28 32 33 35 36 34 36 35 35 35 35 35 34 22 28 40 37 44 36 30 33 38 40 38
10 8 6 2 2 3 4 6 10 14 16 19 20 20 20 20 22 22 24 27 25 25 26 27 29 31 32 31 33 34 35 37 39 32 29 41 41 46 41 41 33 35 40
7 6 8 6 3 3 4 5 8 14 17 21 23 26 20 19 21 16 17 23 24 23 29 32 35 37 37 35 31 31 35 37 40 44 39 33 38 39 40 42 46 41 41
16 12 10 9 8 8 11 12 12 15 18 21 18 16 10 10 12 17 20 24 26 31 33 39 42 42 41 41 42 40 35 33 40 44 49 54 48 44 33 40 49 48 48
18 15 13 12 13 15 16 18 19 24 25 29 29 16 7 8 9 11 16 19 34 41 41 49 49 42 56 46 44 41 43 49 47 43 46 51 56 59 57 45 36 51 50
18 15 14 14 14 15 17 19 21 24 28 29 31 24 10 11 38 14 26 29 48 43 56 58 53 57 54 52 55 50 46 43 46 53 53 51 50 55 58 60 54 40 43
14 12 11 11 13 17 19 22 25 27 28 30 28 28 21 19 13 28 40 49 52 57 60 63 67 65 60 57 53 52 55 50 46 44 45 54 57 57 55 56 67 74 64
12 11 11 13 15 19 24 25 27 30 33 33 34 32 28 22 17 33 47 68 68 64 65 66 63 63 63 62 59 62 57 48 54 51 49 52 52 58 63 62 58 62 72
10 10 12 13 16 19 21 24 26 26 27 29 29 31 32 32 33 36 50 64 69 74 71 72 69 66 55 56 58 59 58 67 62 61 71 72 65 60 56 63 68 66 62
8 8 9 10 12 13 15 18 22 26 27 28 27 26 25 27 31 36 44 56 67 80 79 72 72 70 63 55 58 62 72 74 79 81 83 79 71 67 65 61 59 66 72
1 2 4 4 7 12 15 18 20 23 25 25 25 25 26 28 33 39 44 51 71 72 83 86 83 75 73 76 77 79 85 87 80 80 84 82 76 72 68 67 66 63 60
10 7 5 5 9 12 16 19 22 23 24 25 25 27 28 31 35 39 44 47 47 54 87 91 85 89 85 87 86 83 84 86 88 87 81 82 82 78 74 71 70 69 67
13 8 6 7 11 15 21 24 26 26 26 28 28 28 32 34 37 41 46 48 47 48 55 93 95 90 91 91 91 91 89 87 87 84 82 73 75 76 76 74 73 72 71
13 10 8 8 13 19 23 26 26 26 28 28 32 34 35 38 42 46 48 51 54 55 64 98 89 95 96 94 92 89 89 86 83 80 76 74 66 63 66 66 67 70 72
15 12 9 11 16 19 21 25 29 31 31 33 35 37 39 42 44 48 50 55 61 62 65 86 98 99 97 91 89 86 84 81 78 70 52 50 49 49 54 50 53 59 66
21 16 12 14 14 18 23 27 29 33 34 37 38 40 42 45 46 48 54 59 63 67 71 80 99 94 94 90 87 78 76 78 77 74 68 67 71 76 76 71 71 63 60
24 19 17 17 17 20 24 27 29 33 38 41 42 44 45 47 49 53 57 61 67 70 74 81 90 94 91 87 77 78 90 82 84 76 71 67 60 61 57 55 63 61 50
30 27 25 23 23 25 26 27 30 33 39 44 46 47 49 50 51 56 60 63 65 69 73 77 84 86 87 85 77 79 81 88 89 86 86 76 83 78 72 65 62 68 62
38 35 33 32 31 32 32 31 33 36 41 46 49 50 51 53 54 56 59 60 56 56 66 67 77 77 89 86 89 82 89 88 98 81 80 97 85 80 77 74 63 53 56
45 43 41 40 41 40 40 39 41 42 46 50 52 54 55 55 58 57 60 58 61 64 51 60 73 76 86 82 83 91 92 91 97 91 84 84 72 80 85 81 71 61 56
51 48 49 50 50 47 47 46 47 49 52 54 55 56 57 58 58 60 60 64 67 71 73 68 69 76 78 80 82 85 85 92 90 79 67 91 86 82 78 70 67 65 59
54 54 54 55 55 52 51 53 53 56 57 58 58 59 60 59 56 57 50 60 71 77 71 69 69 63 66 71 68 70 73 77 82 71 70 76 74 74 77 79 58 37 26
57 58 59 58 57 56 54 56 58 60 62 60 62 62 61 58 56 41 43 58 73 71 71 74 72 70 66 63 59 50 52 62 66 66 54 60 74 73 69 58 18 49 77
Wind_Direction_500mb
209 249 282 278 276 303 305 314 316 332 325 335 345 347 348 344 335 340 343 347 344 338 330 324 321 316 310 307 316 314 310 309 308 305 305 304 290 282 278 276 264 259 259
259 271 281 294 293 288 305 306 308 314 326 320 329 328 335 337 334 334 334 333 336 336 335 331 323 315 308 303 300 293 307 306 302 301 300 304 301 296 292 290 283 272 264
226 240 254 298 306 298 292 292 301 307 303 300 307 318 321 325 322 321 322 319 320 323 320 320 317 314 308 301 295 289 280 276 290 296 304 301 295 305 306 306 302 291 277
194 203 174 264 254 20 335 329 341 319 317 312 316 319 325 325 323 322 323 315 314 314 315 314 311 308 304 298 289 283 281 276 267 280 294 296 303 300 306 312 309 303 296
168 154 161 196 155 290 301 321 315 306 312 322 324 321 325 320 316 311 307 306 316 322 321 325 326 325 320 308 294 287 279 272 262 263 273 283 287 297 305 303 308 309 311
139 160 190 204 214 264 320 341 333 327 334 329 337 342 353 346 349 353 334 328 331 328 328 325 324 323 320 318 314 305 287 277 268 258 255 271 283 291 294 293 303 305 308
129 120 117 103 77 55 39 27 3 352 347 353 356 48 53 341 12 4 340 330 337 338 340 344 341 340 339 328 314 305 303 295 274 266 261 255 256 257 270 279 284 292 297
115 103 87 76 62 48 45 36 24 16 10 8 16 24 8 332 17 34 338 336 340 335 336 337 339 339 342 339 336 326 307 297 293 286 275 269 267 263 262 266 267 274 285
111 98 78 59 44 33 26 22 17 12 16 15 15 26 14 351 329 242 320 318 329 329 329 332 336 332 337 335 333 328 328 321 303 292 291 286 277 270 266 257 259 256 266
114 95 71 49 35 33 27 22 21 18 14 20 21 30 29 1 337 317 312 318 323 329 333 334 333 332 329 329 328 320 324 322 321 313 300 291 291 285 276 265 255 254 255
113 100 79 56 36 25 22 20 15 12 11 10 10 6 3 2 336 325 324 329 327 334 334 333 334 334 331 327 322 316 314 310 312 305 314 315 303 290 286 281 271 263 260
113 82 53 33 23 12 6 0 357 355 358 360 2 359 358 357 348 340 328 330 329 329 329 332 336 332 328 317 315 313 305 306 305 299 299 303 301 298 293 284 281 275 268
85 42 19 3 354 352 352 352 349 348 349 351 353 354 350 347 342 337 332 328 328 328 330 330 331 329 327 319 306 305 303 302 301 300 299 299 296 293 291 290 285 279 275
152 272 271 317 349 349 349 345 346 345 344 344 345 343 343 341 340 338 336 332 330 328 329 331 332 331 324 313 309 306 306 305 300 298 298 298 296 292 288 285 284 284 279
209 223 254 311 334 337 344 344 341 340 338 338 340 337 335 336 338 336 334 333 330 319 322 327 323 323 321 317 314 310 306 304 305 305 298 297 296 293 290 285 281 279 280
211 223 262 311 339 342 346 338 336 333 331 330 331 331 332 333 333 332 332 330 327 318 306 322 321 318 317 316 314 311 310 307 305 304 306 302 293 295 291 287 283 278 274
218 234 260 315 336 335 333 330 328 328 326 327 326 327 328 327 328 328 328 329 327 320 310 322 319 319 318 318 316 314 313 312 309 306 304 309 310 302 301 297 291 285 277
226 240 271 306 318 321 328 328 328 324 325 323 319 321 323 322 323 323 324 325 325 322 317 318 321 321 319 320 321 321 319 316 313 310 307 290 288 285 275 280 289 289 286
227 236 260 288 304 321 324 324 322 321 322 315 317 319 318 317 318 319 320 322 320 320 320 317 317 318 319 323 326 327 329 324 319 314 310 303 294 283 278 279 292 294 288
233 243 257 272 298 305 309 312 317 323 319 313 313 313 313 312 314 316 316 318 319 319 319 318 317 319 322 325 327 325 321 321 322 324 323 320 313 309 303 295 280 272 274
236 242 252 265 277 284 292 301 313 319 317 312 311 309 308 308 310 312 315 316 317 318 319 318 317 318 318 321 315 318 313 317 318 320 320 321 322 319 318 311 302 280 271
239 245 256 263 269 276 282 291 300 306 310 311 310 306 305 305 307 309 310 314 315 316 313 312 314 306 310 312 313 309 310 308 305 314 313 311 318 315 315 317 312 303 294
246 252 260 266 271 272 277 285 293 301 305 307 307 305 304 305 306 306 309 312 313 319 305 302 301 308 309 314 312 309 306 303 300 307 309 304 311 307 306 308 307 302 299
251 259 264 269 271 274 276 281 289 296 300 305 305 304 303 303 303 305 309 315 313 309 312 307 300 299 300 304 302 300 299 295 295 299 301 300 305 304 309 309 306 306 300
256 264 269 271 273 273 274 280 286 292 297 303 303 302 301 301 302 306 308 304 305 309 313 310 310 307 305 303 299 299 298 296 300 303 305 304 308 307 307 309 320 307 293
262 264 268 272 274 276 275 278 283 288 294 299 300 300 299 301 301 294 299 298 304 315 314 317 317 316 317 316 313 303 298 301 305 307 307 303 306 308 308 311 295 294 303
Wind_Speed_850mb
7 5 6 9 12 16 17 20 19 20 22 21 25 31 33 33 29 29 28 27 28 28 29 31 32 31 30 27 22 26 25 27 24 16 19 23 24 27 30 34 36 41 44
12 17 18 18 20 18 17 13 20 27 17 19 24 26 26 27 27 27 29 33 29 28 28 30 31 33 33 32 32 23 20 26 31 33 29 27 25 29 33 35 33 33 40
20 15 6 7 13 18 15 17 21 23 16 22 22 28 25 24 22 24 29 27 29 29 29 29 30 31 32 35 35 34 28 21 29 37 34 35 26 26 30 33 36 36 35
5 4 2 3 1 4 2 6 6 14 16 17 20 20 19 19 18 21 24 28 32 33 35 36 34 36 35 35 35 35 35 34 22 28 40 37 44 36 30 33 38 40 38
10 8 6 2 2 3 4 6 10 14 16 19 20 20 20 20 22 22 24 27 25 25 26 27 29 31 32 31 33 34 35 37 39 32 29 41 41 46 41 41 33 35 40
7 6 8 6 3 3 4 5 8 14 17 21 23 26 20 19 21 16 17 23 24 23 29 32 35 37 37 35 31 31 35 37 40 44 39 33 38 39 40 42 46 41 41
16 12 10 9 8 8 11 12 12 15 18 21 18 16 10 10 12 17 20 24 26 31 33 39 42 42 41 41 42 40 35 33 40 44 49 54 48 44 33 40 49 48 48
18 15 13 12 13 15 16 18 19 24 25 29 29 16 7 8 9 11 16 19 34 41 41 49 49 42 56 46 44 41 43 49 47 43 46 51 56 59 57 45 36 51 50
18 15 14 14 14 15 17 19 21 24 28 29 31 24 10 11 38 14 26 29 48 43 56 58 53 57 54 52 55 50 46 43 46 53 53 51 50 55 58 60 54 40 43
14 12 11 11 13 17 19 22 25 27 28 30 28 28 21 19 13 28 40 49 52 57 60 63 67 65 60 57 53 52 55 50 46 44 45 54 57 57 55 56 67 74 64
12 11 11 13 15 19 24 25 27 30 33 33 34 32 28 22 17 33 47 68 68 64 65 66 63 63 63 62 59 62 57 48 54 51 49 52 52 58 63 62 58 62 72
10 10 12 13 16 19 21 24 26 26 27 29 29 31 32 32 33 36 50 64 69 74 71 72 69 66 55 56 58 59 58 67 62 61 71 72 65 60 56 63 68 66 62
8 8 9 10 12 13 15 18 22 26 27 28 27 26 25 27 31 36 44 56 67 80 79 72 72 70 63 55 58 62 72 74 79 81 83 79 71 67 65 61 59 66 72
1 2 4 4 7 12 15 18 20 23 25 25 25 25 26 28 33 39 44 51 71 72 83 86 83 75 73 76 77 79 85 87 80 80 84 82 76 72 68 67 66 63 60
10 7 5 5 9 12 16 19 22 23 24 25 25 27 28 31 35 39 44 47 47 54 87 91 85 89 85 87 86 83 84 86 88 87 81 82 82 78 74 71 70 69 67
13 8 6 7 11 15 21 24 26 26 26 28 28 28 32 34 37 41 46 48 47 48 55 93 95 90 91 91 91 91 89 87 87 84 82 73 75 76 76 74 73 72 71
13 10 8 8 13 19 23 26 26 26 28 28 32 34 35 38 42 46 48 51 54 55 64 98 89 95 96 94 92 89 89 86 83 80 76 74 66 63 66 66 67 70 72
15 12 9 11 16 19 21 25 29 31 31 33 35 37 39 42 44 48 50 55 61 62 65 86 98 99 97 91 89 86 84 81 78 70 52 50 49 49 54 50 53 59 66
21 16 12 14 14 18 23 27 29 33 34 37 38 40 42 45 46 48 54 59 63 67 71 80 99 94 94 90 87 78 76 78 77 74 68 67 71 76 76 71 71 63 60
24 19 17 17 17 20 24 27 29 33 38 41 42 44 45 47 49 53 57 61 67 70 74 81 90 94 91 87 77 78 90 82 84 76 71 67 60 61 57 55 63 61 50
30 27 25 23 23 25 26 27 30 33 39 44 46 47 49 50 51 56 60 63 65 69 73 77 84 86 87 85 77 79 81 88 89 86 86 76 83 78 72 65 62 68 62
38 35 33 32 31 32 32 31 33 36 41 46 49 50 51 53 54 56 59 60 56 56 66 67 77 77 89 86 89 82 89 88 98 81 80 97 85 80 77 74 63 53 56
45 43 41 40 41 40 40 39 41 42 46 50 52 54 55 55 58 57 60 58 61 64 51 60 73 76 86 82 83 91 92 91 97 91 84 84 72 80 85 81 71 61 56
51 48 49 50 50 47 47 46 47 49 52 54 55 56 57 58 58 60 60 64 67 71 73 68 69 76 78 80 82 85 85 92 90 79 67 91 86 82 78 70 67 65 59
54 54 54 55 55 52 51 53 53 56 57 58 58 59 60 59 56 57 50 60 71 77 71 69 69 63 66 71 68 70 73 77 82 71 70 76 74 74 77 79 58 37 26
57 58 59 58 57 56 54 56 58 60 62 60 62 62 61 58 56 41 43 58 73 71 71 74 72 70 66 63 59 50 52 62 66 66 54 60 74 73 69 58 18 49 77
Wind_Direction_850mb
209 249 282 278 276 303 305 314 316 332 325 335 345 347 348 344 335 340 343 347 344 338 330 324 321 316 310 307 316 314 310 309 308 305 305 304 290 282 278 276 264 259 259
259 271 281 294 293 288 305 306 308 314 326 320 329 328 335 337 334 334 334 333 336 336 335 331 323 315 308 303 300 293 307 306 302 301 300 304 301 296 292 290 283 272 264
226 240 254 298 306 298 292 292 301 307 303 300 307 318 321 325 322 321 322 319 320 323 320 320 317 314 308 301 295 289 280 276 290 296 304 301 295 305 306 306 302 291 277
194 203 174 264 254 20 335 329 341 319 317 312 316 319 325 325 323 322 323 315 314 314 315 314 311 308 304 298 289 283 281 276 267 280 294 296 303 300 306 312 309 303 296
168 154 161 196 155 290 301 321 315 306 312 322 324 321 325 320 316 311 307 306 316 322 321 325 326 325 320 308 294 287 279 272 262 263 273 283 287 297 305 303 308 309 311
139 160 190 204 214 264 320 341 333 327 334 329 337 342 353 346 349 353 334 328 331 328 328 325 324 323 320 318 314 305 287 277 268 258 255 271 283 291 294 293 303 305 308
129 120 117 103 77 55 39 27 3 352 347 353 356 48 53 341 12 4 340 330 337 338 340 344 341 340 339 328 314 305 303 295 274 266 261 255 256 257 270 279 284 292 297
115 103 87 76 62 48 45 36 24 16 10 8 16 24 8 332 17 34 338 336 340 335 336 337 339 339 342 339 336 326 307 297 293 286 275 269 267 263 262 266 267 274 285
111 98 78 59 44 33 26 22 17 12 16 15 15 26 14 351 329 242 320 318 329 329 329 332 336 332 337 335 333 328 328 321 303 292 291 286 277 270 266 257 259 256 266
114 95 71 49 35 33 27 22 21 18 14 20 21 30 29 1 337 317 312 318 323 329 333 334 333 332 329 329 328 320 324 322 321 313 300 291 291 285 276 265 255 254 255
113 100 79 56 36 25 22 20 15 12 11 10 10 6 3 2 336 325 324 329 327 334 334 333 334 334 331 327 322 316 314 310 312 305 314 315 303 290 286 281 271 263 260
113 82 53 33 23 12 6 0 357 355 358 360 2 359 358 357 348 340 328 330 329 329 329 332 336 332 328 317 315 313 305 306 305 299 299 303 301 298 293 284 281 275 268
85 42 19 3 354 352 352 352 349 348 349 351 353 354 350 347 342 337 332 328 328 328 330 330 331 329 327 319 306 305 303 302 301 300 299 299 296 293 291 290 285 279 275
152 272 271 317 349 349 349 345 346 345 344 344 345 343 343 341 340 338 336 332 330 328 329 331 332 331 324 313 309 306 306 305 300 298 298 298 296 292 288 285 284 284 279
209 223 254 311 334 337 344 344 341 340 338 338 340 337 335 336 338 336 334 333 330 319 322 327 323 323 321 317 314 310 306 304 305 305 298 297 296 293 290 285 281 279 280
211 223 262 311 339 342 346 338 336 333 331 330 331 331 332 333 333 332 332 330 327 318 306 322 321 318 317 316 314 311 310 307 305 304 306 302 293 295 291 287 283 278 274
218 234 260 315 336 335 333 330 328 328 326 327 326 327 328 327 328 328 328 329 327 320 310 322 319 319 318 318 316 314 313 312 309 306 304 309 310 302 301 297 291 285 277
226 240 271 306 318 321 328 328 328 324 325 323 319 321 323 322 323 323 324 325 325 322 317 318 321 321 319 320 321 321 319 316 313 310 307 290 288 285 275 280 289 289 286
227 236 260 288 304 321 324 324 322 321 322 315 317 319 318 317 318 319 320 322 320 320 320 317 317 318 319 323 326 327 329 324 319 314 310 303 294 283 278 279 292 294 288
233 243 257 272 298 305 309 312 317 323 319 313 313 313 313 312 314 316 316 318 319 319 319 318 317 319 322 325 327 325 321 321 322 324 323 320 313 309 303 295 280 272 274
236 242 252 265 277 284 292 301 313 319 317 312 311 309 308 308 310 312 315 316 317 318 319 318 317 318 318 321 315 318 313 317 318 320 320 321 322 319 318 311 302 280 271
239 245 256 263 269 276 282 291 300 306 310 311 310 306 305 305 307 309 310 314 315 316 313 312 314 306 310 312 313 309 310 308 305 314 313 311 318 315 315 317 312 303 294
246 252 260 266 271 272 277 285 293 301 305 307 307 305 304 305 306 306 309 312 313 319 305 302 301 308 309 314 312 309 306 303 300 307 309 304 311 307 306 308 307 302 299
251 259 264 269 271 274 276 281 289 296 300 305 305 304 303 303 303 305 309 315 313 309 312 307 300 299 300 304 302 300 299 295 295 299 301 300 305 304 309 309 306 306 300
256 264 269 271 273 273 274 280 286 292 297 303 303 302 301 301 302 306 308 304 305 309 313 310 310 307 305 303 299 299 298 296 300 303 305 304 308 307 307 309 320 307 293
262 264 268 272 274 276 275 278 283 288 294 299 300 300 299 301 301 294 299 298 304 315 314 317 317 316 317 316 313 303 298 301 305 307 307 303 306 308 308 311 295 294 303